DELTA 1 DEB, 19512

Orbit data source: Space-Track

DELTA 1 DEB, 19512 is space debris in SSO originally from a launch on Tue, 06 Nov 1973 UTC launched from the Air Force Western Test Range (AFWTR). Debris objects in space refer to the collection of defunct objects orbiting the Earth. Examples of debris include non-operational satellites, rocket bodies, and fragments generated from explosions, collisions, or faulty payload assembly.

Loading next visibility...
Identifier
19512, 1973-086HF
Orbit
SSO
Country
Flag of USUS
Related business
Manufacturer
Unknown
Mission
Spacecraft
Bus & Motor
Unknown
Mass
Unknown
Launch date (UTC)
1973-11-06 (52 years ago)
Launch vehicle
Unknown
Launch site
Air Force Western Test Range (AFWTR)
Object type
Payload
Rocket body
Debris
Shape & HBR
Unknown shape, 0.1 m
Radar Cross Section
Small (<0.1 m²)

Expand to show TLE details & history
Last TLE update: 1 day ago

TLE from 1 day ago
0 DELTA 1 DEB
1 19512U 73086HF  25291.48326514  .00000006  00000-0  41329-3 0  9992
2 19512 102.4092 294.5158 0029231 176.7861 341.1919 12.35208572687627
Epoch: 2025-10-18T11:35Z
TLE epoch observation values (Epoch: 2025-10-18T11:35:54.108Z)
Latitude
21.60037°
Longitude
-81.69991°
Altitude
1,507.402 km
Speed
7.123 km/s
True Right ascension
07h 57m 57s
True Declination
21° 29' 39"
Sunlit
Object was in daylight at epoch
Visualization orbit readout
Latitude
Unknown
Longitude
Unknown
Altitude
Unknown
Speed
Unknown
Apparent Right ascension
Unknown
Apparent Declination
Unknown
Sunlit
N/A
Visualization observer readout
Local Sidereal Time
08:16:03
Azimuth
Unknown
Elevation
Unknown
Doppler factor
Unknown
Orbital elements
Apogee altitude
1,547.686 km
Perigee altitude
1,501.485 km
Semi-major axis
7,902.723 km
Eccentricity
0.00292
Inclination
102.4092°
RAAN
294.5158°
Arg. of periapsis
176.7861°
True anomaly
341.08353°
Mean anomaly
341.1919°
Eccentric anomaly
341.13775°
Mean motion
3.08943 °/min
Orbital period
116.53 mins
BSTAR
0.00041329
Loading maneuver chart data...
Computing Atmospheric mass density...
Loading historical data...
Loading historical data...
Loading historical data...
Loading historical data...
Loading historical data...
Loading historical data...
Loading historical data...

Documentation

Showing up to 5 results
|